User: anonymous   Login
Location: Unspecified
(0.0000°N, 0.0000°E)
Time: 22:35:31
(UTC+00:00)
Language:

Akebono - Orbit

View from above orbital plane
View from above orbital plane
View from above satellite
View from above satellite

Ground track
Ground track

The orbit data is extracted from the following two-line orbital elements,

1 19822U 89016A   18174.09210774 +.00014496 +52153-6 +26796-3 0  9996
2 19822 075.0300 219.5089 1842562 346.4744 009.2603 11.83976890952876
Epoch (UTC): 23 June 2018 02:12:38
Eccentricity: 0.1842562
inclination: 75.0300°
perigee height: 255 km
apogee height: 3251 km
right ascension of ascending node: 219.5089°
argument of perigee: 346.4744°
revolutions per day: 11.83976890
mean anomaly at epoch: 9.2603°
orbit number at epoch: 95287

The dashed part of the orbit path shows where the satellite is in the earth's shadow,  

DLR